軌道要素
Epoch 2019 Aug. 25.0 TT = JDT 2458720.5
T 2019 Sept. 8.90384 TT Rudenko
q 2.2328561 (2000.0) P Q
n 0.01464910 Peri. 10.95825 -0.99215105 +0.12278139
a 16.5422819 Node 175.86752 -0.12423177 -0.98942253
e 0.8650213 Incl. 19.18905 +0.01423959 -0.07725150
P 67.3
From 605 observations 2019 Feb. 26-2020 July 20, mean residual 0".5.
|